| time (UTC) | temp C | wind direction | speed KPH | gust KPH | rain 1hr cm | rain 24hr cm | rain mn cm | humidity % | barometer mb |
| 20260904103944 | 24 | 225 | 0.0 | 0.0 | 0.00 | 0.05 | 0.00 | 89 | 1023.5 |
| 20260904103442 | 24 | 238 | 0.0 | 0.0 | 0.00 | 0.05 | 0.00 | 89 | 1023.4 |
| 20260904102922 | 24 | 205 | 0.0 | 0.0 | 0.00 | 0.05 | 0.00 | 89 | 1023.5 |
| 20260904102400 | 24 | 227 | 0.0 | 0.0 | 0.00 | 0.05 | 0.00 | 89 | 1023.5 |
| 20260904101836 | 24 | 245 | 0.0 | 0.0 | 0.00 | 0.05 | 0.00 | 90 | 1023.6 |
| 20260904101327 | 24 | 231 | 0.0 | 0.0 | 0.00 | 0.05 | 0.00 | 90 | 1023.5 |
| 20260904101051 | 24 | 234 | 0.0 | 0.0 | 0.00 | 0.05 | 0.00 | 90 | 1023.4 |
| 20260904100318 | 24 | 241 | 0.0 | 0.0 | 0.00 | 0.05 | 0.00 | 90 | 1023.4 |
| 20260904095815 | 24 | 225 | 0.0 | 0.0 | 0.00 | 0.05 | 0.00 | 91 | 1023.3 |
| 20260904095315 | 24 | 230 | 0.0 | 0.0 | 0.00 | 0.05 | 0.00 | 91 | 1023.3 |
| 20260904095025 | 24 | 224 | 0.0 | 0.0 | 0.00 | 0.05 | 0.00 | 91 | 1023.3 |
| 20260904094225 | 24 | 219 | 0.0 | 0.0 | 0.00 | 0.05 | 0.00 | 91 | 1023.4 |
| 20260904093709 | 24 | 221 | 0.0 | 0.0 | 0.00 | 0.05 | 0.00 | 91 | 1023.3 |
| 20260904093149 | 24 | 221 | 0.0 | 0.0 | 0.00 | 0.05 | 0.00 | 91 | 1023.3 |
| 20260904092650 | 24 | 221 | 0.0 | 0.0 | 0.00 | 0.05 | 0.00 | 91 | 1023.2 |
| 20260904092149 | 24 | 221 | 0.0 | 0.0 | 0.00 | 0.05 | 0.00 | 91 | 1023.2 |
| 20260904091625 | 24 | 221 | 0.0 | 0.0 | 0.00 | 0.05 | 0.00 | 91 | 1023.2 |
| 20260904091345 | 24 | 221 | 0.0 | 0.0 | 0.00 | 0.05 | 0.00 | 90 | 1023.0 |
| 20260904090615 | 24 | 221 | 0.0 | 0.0 | 0.00 | 0.05 | 0.00 | 90 | 1023.1 |
| 20260904090049 | 24 | 228 | 0.0 | 0.0 | 0.00 | 0.05 | 0.00 | 90 | 1023.1 |
| 20260904085548 | 24 | 229 | 0.0 | 0.0 | 0.00 | 0.05 | 0.00 | 90 | 1023.1 |
| 20260904085024 | 24 | 229 | 0.0 | 0.0 | 0.00 | 0.05 | 0.00 | 91 | 1023.0 |
| 20260904084503 | 24 | 229 | 0.0 | 0.0 | 0.00 | 0.05 | 0.00 | 91 | 1023.0 |
| 20260904083952 | 24 | 209 | 0.0 | 0.0 | 0.00 | 0.05 | 0.00 | 91 | 1023.0 |
| 20260904083428 | 24 | 209 | 0.0 | 0.0 | 0.00 | 0.05 | 0.00 | 90 | 1022.9 |
| 20260904083158 | 24 | 209 | 0.0 | 0.0 | 0.00 | 0.05 | 0.00 | 90 | 1022.9 |
| 20260904082425 | 24 | 209 | 0.0 | 0.0 | 0.00 | 0.05 | 0.00 | 90 | 1022.9 |
| 20260904081903 | 24 | 209 | 0.0 | 0.0 | 0.00 | 0.05 | 0.00 | 90 | 1022.9 |
| 20260904081858 | 24 | 209 | 0.0 | 0.0 | 0.00 | 0.05 | 0.00 | 90 | 1022.9 |
| 20260904081111 | 24 | 209 | 0.0 | 0.0 | 0.00 | 0.05 | 0.00 | 90 | 1022.9 |
| 20260904080339 | 24 | 209 | 0.0 | 0.0 | 0.00 | 0.05 | 0.00 | 90 | 1022.8 |
| 20260904075814 | 25 | 209 | 0.0 | 0.0 | 0.00 | 0.05 | 0.00 | 90 | 1022.8 |
| 20260904075245 | 25 | 209 | 0.0 | 0.0 | 0.00 | 0.05 | 0.00 | 90 | 1022.9 |
| 20260904074743 | 25 | 209 | 0.0 | 0.0 | 0.00 | 0.05 | 0.00 | 90 | 1022.9 |
| 20260904074231 | 25 | 209 | 0.0 | 0.0 | 0.00 | 0.05 | 0.00 | 89 | 1022.9 |
| 20260904074226 | 25 | 209 | 0.0 | 0.0 | 0.00 | 0.05 | 0.00 | 90 | 1022.9 |
| 20260904073838 | 25 | 209 | 0.0 | 0.0 | 0.00 | 0.05 | 0.00 | 89 | 1022.9 |
| 20260904072927 | 25 | 209 | 0.0 | 0.0 | 0.00 | 0.05 | 0.00 | 89 | 1022.9 |
| 20260904072153 | 25 | 209 | 0.0 | 0.0 | 0.00 | 0.05 | 0.00 | 89 | 1022.9 |
| 20260904071652 | 25 | 209 | 0.0 | 0.0 | 0.00 | 0.05 | 0.00 | 89 | 1022.9 |
| 20260904071136 | 25 | 209 | 0.0 | 0.0 | 0.00 | 0.05 | 0.00 | 89 | 1022.9 |
| 20260904070638 | 25 | 209 | 0.0 | 0.0 | 0.00 | 0.05 | 0.00 | 89 | 1022.9 |
| 20260904070109 | 25 | 209 | 0.0 | 0.0 | 0.00 | 0.05 | 0.00 | 89 | 1022.9 |
| 20260904065607 | 25 | 209 | 0.0 | 0.0 | 0.00 | 0.05 | 0.00 | 89 | 1022.9 |
| 20260904065039 | 25 | 209 | 0.0 | 0.0 | 0.00 | 0.05 | 0.00 | 89 | 1022.9 |
| 20260904064538 | 25 | 188 | 0.0 | 0.0 | 0.00 | 0.05 | 0.00 | 89 | 1022.9 |
| 20260904064248 | 25 | 185 | 0.0 | 0.0 | 0.00 | 0.05 | 0.00 | 89 | 1022.9 |
| 20260904063519 | 25 | 196 | 0.0 | 0.0 | 0.00 | 0.05 | 0.00 | 88 | 1022.9 |
| 20260904062959 | 25 | 191 | 0.0 | 0.0 | 0.00 | 0.05 | 0.00 | 88 | 1022.9 |
| 20260904062421 | 25 | 191 | 0.0 | 0.0 | 0.00 | 0.05 | 0.00 | 88 | 1022.9 |
| 20260904061919 | 25 | 194 | 0.0 | 0.0 | 0.00 | 0.05 | 0.00 | 88 | 1023.0 |
| 20260904061351 | 25 | 194 | 0.0 | 0.0 | 0.00 | 0.05 | 0.00 | 88 | 1023.0 |
| 20260904060847 | 25 | 194 | 0.0 | 0.0 | 0.00 | 0.05 | 0.00 | 88 | 1023.0 |
| 20260904060338 | 25 | 197 | 0.0 | 0.0 | 0.00 | 0.05 | 0.00 | 88 | 1022.9 |
| 20260904060104 | 25 | 191 | 0.0 | 0.0 | 0.00 | 0.05 | 0.00 | 87 | 1023.0 |
| 20260904055327 | 25 | 191 | 0.0 | 0.0 | 0.00 | 0.05 | 0.00 | 87 | 1023.0 |
| 20260904054824 | 25 | 191 | 0.0 | 0.0 | 0.00 | 0.05 | 0.00 | 87 | 1023.1 |
| 20260904054817 | 25 | 191 | 0.0 | 0.0 | 0.00 | 0.05 | 0.00 | 87 | 1023.0 |
| 20260904053814 | 25 | 191 | 0.0 | 0.0 | 0.00 | 0.05 | 0.00 | 87 | 1022.9 |
| 20260904053549 | 25 | 183 | 0.0 | 0.0 | 0.00 | 0.05 | 0.00 | 87 | 1022.9 |
| 20260904052751 | 25 | 184 | 0.0 | 0.0 | 0.00 | 0.05 | 0.00 | 86 | 1022.9 |
| 20260904052456 | 25 | 184 | 0.0 | 0.0 | 0.00 | 0.05 | 0.00 | 86 | 1022.9 |
| 20260904051708 | 25 | 187 | 0.0 | 8.0 | 0.00 | 0.05 | 0.00 | 86 | 1022.8 |
| 20260904051209 | 25 | 187 | 0.0 | 8.0 | 0.00 | 0.05 | 0.00 | 86 | 1022.9 |
| 20260904050707 | 25 | 189 | 0.0 | 1.6 | 0.00 | 0.05 | 0.00 | 86 | 1022.8 |
| 20260904050207 | 25 | 192 | 0.0 | 1.6 | 0.00 | 0.05 | 0.00 | 86 | 1022.8 |
| 20260904045910 | 26 | 182 | 0.0 | 0.0 | 0.00 | 0.05 | 0.05 | 85 | 1022.9 |
| 20260904045114 | 26 | 181 | 0.0 | 4.8 | 0.00 | 0.05 | 0.05 | 85 | 1022.8 |
| 20260904044545 | 26 | 196 | 0.0 | 4.8 | 0.00 | 0.05 | 0.05 | 85 | 1022.8 |
| 20260904044043 | 26 | 192 | 0.0 | 1.6 | 0.00 | 0.05 | 0.05 | 85 | 1022.8 |
| 20260904043515 | 26 | 188 | 0.0 | 0.0 | 0.00 | 0.05 | 0.05 | 85 | 1022.8 |
| 20260904043005 | 26 | 184 | 0.0 | 0.0 | 0.00 | 0.05 | 0.05 | 84 | 1022.8 |
| 20260904042503 | 26 | 192 | 0.0 | 6.4 | 0.00 | 0.05 | 0.05 | 84 | 1022.8 |
| 20260904041937 | 26 | 182 | 0.0 | 6.4 | 0.00 | 0.05 | 0.05 | 84 | 1022.7 |
| 20260904041409 | 26 | 191 | 0.0 | 4.8 | 0.00 | 0.05 | 0.05 | 84 | 1022.7 |
| 20260904040908 | 26 | 178 | 0.0 | 4.8 | 0.00 | 0.05 | 0.05 | 84 | 1022.8 |
| 20260904040341 | 26 | 188 | 0.0 | 4.8 | 0.00 | 0.05 | 0.05 | 83 | 1022.8 |
| 20260904035833 | 26 | 194 | 0.0 | 0.0 | 0.00 | 0.05 | 0.05 | 83 | 1022.8 |
| 20260904035332 | 26 | 190 | 0.0 | 1.6 | 0.00 | 0.05 | 0.05 | 83 | 1022.8 |
| 20260904034803 | 26 | 182 | 0.0 | 11.3 | 0.00 | 0.05 | 0.05 | 83 | 1022.8 |
| 20260904034301 | 26 | 190 | 0.0 | 3.2 | 0.00 | 0.05 | 0.05 | 82 | 1022.8 |
| 20260904033729 | 26 | 178 | 0.0 | 3.2 | 0.00 | 0.05 | 0.05 | 82 | 1022.8 |
| 20260904033231 | 26 | 184 | 0.0 | 3.2 | 0.00 | 0.05 | 0.05 | 82 | 1022.7 |
| 20260904032733 | 26 | 188 | 0.0 | 3.2 | 0.00 | 0.05 | 0.05 | 81 | 1022.8 |
| 20260904032225 | 26 | 196 | 0.0 | 4.8 | 0.00 | 0.05 | 0.05 | 81 | 1022.8 |
| 20260904031724 | 26 | 202 | 0.0 | 12.9 | 0.00 | 0.05 | 0.05 | 81 | 1022.9 |
| 20260904031155 | 26 | 190 | 0.0 | 12.9 | 0.00 | 0.05 | 0.05 | 81 | 1022.9 |
| 20260904030653 | 26 | 188 | 0.0 | 11.3 | 0.00 | 0.05 | 0.05 | 81 | 1022.9 |
| 20260904030125 | 26 | 182 | 0.0 | 11.3 | 0.00 | 0.05 | 0.05 | 81 | 1022.8 |
| 20260904025614 | 26 | 177 | 0.0 | 6.4 | 0.00 | 0.05 | 0.05 | 81 | 1022.9 |
| 20260904025048 | 26 | 180 | 0.0 | 0.0 | 0.00 | 0.05 | 0.05 | 81 | 1022.8 |
| 20260904024535 | 26 | 180 | 0.0 | 0.0 | 0.00 | 0.05 | 0.05 | 80 | 1022.8 |
| 20260904024034 | 26 | 190 | 0.0 | 0.0 | 0.00 | 0.05 | 0.05 | 80 | 1022.8 |
| 20260904023505 | 26 | 190 | 0.0 | 0.0 | 0.00 | 0.05 | 0.05 | 80 | 1022.8 |
| 20260904023004 | 26 | 187 | 0.0 | 0.0 | 0.00 | 0.05 | 0.05 | 80 | 1022.7 |
| 20260904022656 | 26 | 186 | 0.0 | 0.0 | 0.00 | 0.05 | 0.05 | 79 | 1022.7 |
| 20260904022532 | 26 | 186 | 0.0 | 0.0 | 0.00 | 0.05 | 0.05 | 79 | 1022.8 |
| 20260904021418 | 26 | 186 | 0.0 | 0.0 | 0.00 | 0.05 | 0.05 | 79 | 1022.6 |
| 20260904020855 | 27 | 186 | 0.0 | 0.0 | 0.00 | 0.05 | 0.05 | 78 | 1022.6 |
| 20260904020608 | 27 | 186 | 0.0 | 0.0 | 0.00 | 0.05 | 0.05 | 78 | 1022.6 |
| 20260904015836 | 27 | 186 | 0.0 | 0.0 | 0.00 | 0.05 | 0.05 | 78 | 1022.5 |
| 20260904015335 | 27 | 186 | 0.0 | 0.0 | 0.00 | 0.05 | 0.05 | 77 | 1022.5 |
| 20260904014833 | 27 | 186 | 0.0 | 0.0 | 0.00 | 0.05 | 0.05 | 77 | 1022.5 |
| 20260904014305 | 27 | 186 | 0.0 | 0.0 | 0.00 | 0.05 | 0.05 | 77 | 1022.5 |
| 20260904013804 | 27 | 186 | 0.0 | 0.0 | 0.00 | 0.05 | 0.05 | 76 | 1022.5 |
| 20260904013243 | 27 | 186 | 0.0 | 0.0 | 0.00 | 0.05 | 0.05 | 76 | 1022.5 |
| 20260904012742 | 27 | 186 | 0.0 | 0.0 | 0.00 | 0.05 | 0.05 | 75 | 1022.5 |
| 20260904012244 | 27 | 186 | 0.0 | 0.0 | 0.00 | 0.05 | 0.05 | 75 | 1022.4 |
| 20260904011719 | 27 | 186 | 0.0 | 0.0 | 0.00 | 0.05 | 0.05 | 74 | 1022.2 |
| 20260904011151 | 28 | 186 | 0.0 | 1.6 | 0.00 | 0.05 | 0.05 | 74 | 1022.1 |
| 20260904010650 | 28 | 186 | 0.0 | 1.6 | 0.00 | 0.05 | 0.05 | 73 | 1022.1 |
| 20260904010122 | 28 | 187 | 0.0 | 1.6 | 0.00 | 0.05 | 0.05 | 73 | 1022.1 |
| 20260904005547 | 28 | 205 | 0.0 | 1.6 | 0.00 | 0.05 | 0.05 | 72 | 1022.1 |
| 20260904005029 | 28 | 200 | 0.0 | 0.0 | 0.00 | 0.05 | 0.05 | 72 | 1022.0 |
| 20260904004528 | 28 | 200 | 0.0 | 4.8 | 0.00 | 0.05 | 0.05 | 71 | 1022.0 |
| 20260904004023 | 28 | 200 | 0.0 | 4.8 | 0.00 | 0.05 | 0.05 | 71 | 1022.0 |
| 20260904003521 | 28 | 194 | 0.0 | 0.0 | 0.00 | 0.05 | 0.05 | 70 | 1022.0 |
| 20260904003225 | 28 | 202 | 0.0 | 0.0 | 0.00 | 0.05 | 0.05 | 70 | 1022.0 |
| 20260904002452 | 28 | 205 | 0.0 | 0.0 | 0.00 | 0.05 | 0.05 | 69 | 1022.0 |
| 20260904001950 | 29 | 193 | 0.0 | 0.0 | 0.00 | 0.05 | 0.05 | 69 | 1022.0 |
| 20260904001453 | 29 | 193 | 0.0 | 0.0 | 0.00 | 0.05 | 0.05 | 68 | 1022.1 |
| 20260904000928 | 29 | 193 | 0.0 | 0.0 | 0.00 | 0.05 | 0.05 | 68 | 1022.0 |
| 20260904000359 | 29 | 188 | 0.0 | 0.0 | 0.00 | 0.05 | 0.05 | 67 | 1022.0 |
| 20260903235858 | 29 | 188 | 0.0 | 4.8 | 0.00 | 0.05 | 0.05 | 67 | 1022.0 |
| 20260903235401 | 29 | 169 | 0.0 | 8.0 | 0.00 | 0.05 | 0.05 | 67 | 1022.1 |
| 20260903235126 | 29 | 180 | 0.0 | 8.0 | 0.00 | 0.05 | 0.05 | 66 | 1022.1 |
| 20260903234400 | 29 | 192 | 0.0 | 6.4 | 0.00 | 0.05 | 0.05 | 66 | 1022.1 |
| 20260903233842 | 30 | 180 | 0.0 | 16.1 | 0.00 | 0.05 | 0.05 | 65 | 1022.1 |
| 20260903233346 | 30 | 182 | 1.6 | 16.1 | 0.00 | 0.05 | 0.05 | 65 | 1022.2 |
| 20260903232824 | 30 | 120 | 1.6 | 14.5 | 0.00 | 0.05 | 0.05 | 64 | 1022.2 |
| 20260903232325 | 30 | 235 | 1.6 | 17.7 | 0.00 | 0.05 | 0.05 | 64 | 1022.1 |
| 20260903231823 | 30 | 188 | 1.6 | 17.7 | 0.00 | 0.05 | 0.05 | 63 | 1022.0 |
| 20260903231322 | 30 | 168 | 3.2 | 22.5 | 0.00 | 0.05 | 0.05 | 63 | 1021.8 |
| 20260903230753 | 30 | 225 | 3.2 | 16.1 | 0.00 | 0.05 | 0.05 | 62 | 1021.7 |
| 20260903230520 | 30 | 112 | 1.6 | 25.7 | 0.00 | 0.05 | 0.05 | 61 | 1021.5 |
| 20260903225743 | 31 | 183 | 0.0 | 9.7 | 0.00 | 0.05 | 0.05 | 60 | 1021.5 |
| 20260903225242 | 31 | 349 | 0.0 | 3.2 | 0.00 | 0.05 | 0.05 | 60 | 1021.3 |
| 20260903224947 | 31 | 165 | 0.0 | 14.5 | 0.00 | 0.05 | 0.05 | 59 | 1021.5 |
| 20260903224214 | 31 | 178 | 0.0 | 14.5 | 0.00 | 0.05 | 0.05 | 59 | 1021.4 |
| 20260903223714 | 31 | 198 | 1.6 | 20.9 | 0.00 | 0.05 | 0.05 | 60 | 1021.3 |
| 20260903223159 | 31 | 169 | 3.2 | 20.9 | 0.00 | 0.05 | 0.05 | 59 | 1021.4 |
| 20260903222704 | 31 | 163 | 4.8 | 27.4 | 0.00 | 0.05 | 0.05 | 59 | 1021.5 |
| 20260903222143 | 31 | 182 | 4.8 | 27.4 | 0.00 | 0.05 | 0.05 | 58 | 1021.5 |
| 20260903221641 | 31 | 243 | 3.2 | 22.5 | 0.00 | 0.05 | 0.05 | 59 | 1021.5 |
| 20260903221138 | 31 | 164 | 3.2 | 22.5 | 0.00 | 0.05 | 0.05 | 57 | 1021.6 |
| 20260903220909 | 31 | 224 | 1.6 | 19.3 | 0.00 | 0.05 | 0.05 | 57 | 1021.7 |
| 20260903220135 | 31 | 194 | 4.8 | 22.5 | 0.00 | 0.05 | 0.05 | 57 | 1021.6 |
| 20260903215609 | 31 | 128 | 4.8 | 27.4 | 0.00 | 0.05 | 0.05 | 58 | 1021.5 |
| 20260903215044 | 31 | 183 | 1.6 | 24.1 | 0.00 | 0.05 | 0.05 | 56 | 1021.7 |
| 20260903214547 | 31 | 123 | 1.6 | 19.3 | 0.00 | 0.05 | 0.05 | 57 | 1021.8 |
| 20260903214029 | 31 | 207 | 1.6 | 12.9 | 0.00 | 0.05 | 0.05 | 56 | 1021.7 |
| 20260903213531 | 32 | 189 | 0.0 | 12.9 | 0.00 | 0.05 | 0.05 | 56 | 1021.7 |
| 20260903213009 | 32 | 118 | 1.6 | 9.7 | 0.00 | 0.05 | 0.05 | 57 | 1021.9 |
| 20260903212514 | 31 | 127 | 3.2 | 16.1 | 0.00 | 0.05 | 0.05 | 57 | 1021.9 |
| 20260903212221 | 31 | 144 | 3.2 | 19.3 | 0.00 | 0.05 | 0.05 | 58 | 1022.0 |
| 20260903211440 | 31 | 182 | 3.2 | 19.3 | 0.00 | 0.05 | 0.05 | 57 | 1022.0 |
| 20260903210850 | 31 | 136 | 3.2 | 24.1 | 0.00 | 0.05 | 0.05 | 57 | 1022.0 |
| 20260903210601 | 31 | 209 | 3.2 | 24.1 | 0.00 | 0.05 | 0.05 | 57 | 1022.0 |
| 20260903205805 | 31 | 128 | 0.0 | 8.0 | 0.00 | 0.05 | 0.05 | 58 | 1021.9 |
| 20260903205243 | 31 | 131 | 0.0 | 11.3 | 0.00 | 0.05 | 0.05 | 60 | 1022.0 |
| 20260903204744 | 31 | 81 | 0.0 | 11.3 | 0.00 | 0.05 | 0.05 | 60 | 1022.1 |
| 20260903204243 | 31 | 168 | 0.0 | 3.2 | 0.00 | 0.05 | 0.05 | 59 | 1022.5 |
| 20260903203732 | 30 | 185 | 0.0 | 3.2 | 0.00 | 0.05 | 0.05 | 59 | 1022.5 |
| 20260903203228 | 30 | 185 | 0.0 | 14.5 | 0.00 | 0.05 | 0.05 | 59 | 1022.6 |
| 20260903202728 | 30 | 230 | 0.0 | 14.5 | 0.00 | 0.05 | 0.05 | 59 | 1022.4 |
| 20260903202429 | 30 | 98 | 1.6 | 14.5 | 0.00 | 0.05 | 0.05 | 59 | 1022.6 |
| 20260903201636 | 31 | 175 | 1.6 | 17.7 | 0.00 | 0.05 | 0.05 | 59 | 1022.6 |
| 20260903201107 | 31 | 143 | 1.6 | 17.7 | 0.00 | 0.05 | 0.05 | 58 | 1022.5 |
| 20260903200818 | 31 | 196 | 3.2 | 19.3 | 0.00 | 0.05 | 0.05 | 58 | 1022.6 |
| 20260903200048 | 31 | 159 | 3.2 | 24.1 | 0.00 | 0.05 | 0.05 | 57 | 1022.6 |
| 20260903195524 | 32 | 126 | 1.6 | 24.1 | 0.00 | 0.05 | 0.05 | 55 | 1022.8 |
| 20260903195023 | 32 | 212 | 3.2 | 20.9 | 0.00 | 0.05 | 0.05 | 56 | 1022.6 |
| 20260903194458 | 31 | 131 | 6.4 | 30.6 | 0.00 | 0.05 | 0.05 | 58 | 1022.6 |
| 20260903194223 | 31 | 190 | 8.0 | 30.6 | 0.00 | 0.05 | 0.05 | 57 | 1022.9 |
| 20260903193452 | 31 | 236 | 9.7 | 29.0 | 0.00 | 0.05 | 0.05 | 57 | 1023.1 |
| 20260903192951 | 31 | 184 | 4.8 | 24.1 | 0.00 | 0.05 | 0.05 | 55 | 1023.1 |
| 20260903192451 | 32 | 153 | 1.6 | 19.3 | 0.00 | 0.05 | 0.05 | 56 | 1022.8 |
| 20260903191949 | 31 | 189 | 1.6 | 19.3 | 0.00 | 0.05 | 0.05 | 57 | 1022.8 |
| 20260903191451 | 31 | 184 | 1.6 | 20.9 | 0.00 | 0.05 | 0.05 | 57 | 1022.8 |
| 20260903190934 | 31 | 196 | 1.6 | 20.9 | 0.00 | 0.05 | 0.05 | 56 | 1022.9 |
| 20260903190439 | 31 | 185 | 0.0 | 3.2 | 0.00 | 0.05 | 0.05 | 59 | 1022.9 |
| 20260903185913 | 31 | 209 | 1.6 | 17.7 | 0.00 | 0.05 | 0.05 | 61 | 1022.9 |
| 20260903185416 | 30 | 202 | 1.6 | 17.7 | 0.00 | 0.05 | 0.05 | 60 | 1022.9 |
| 20260903184914 | 30 | 186 | 1.6 | 14.5 | 0.00 | 0.05 | 0.05 | 62 | 1023.0 |
| 20260903184412 | 30 | 271 | 1.6 | 19.3 | 0.03 | 0.05 | 0.05 | 63 | 1023.1 |
| 20260903183856 | 29 | 117 | 1.6 | 19.3 | 0.05 | 0.05 | 0.05 | 66 | 1023.0 |
| 20260903183401 | 29 | 215 | 0.0 | 6.4 | 0.05 | 0.05 | 0.05 | 69 | 1023.2 |
| 20260903182834 | 28 | 196 | 0.0 | 0.0 | 0.05 | 0.05 | 0.05 | 76 | 1023.2 |
| 20260903182312 | 27 | 180 | 0.0 | 4.8 | 0.05 | 0.05 | 0.05 | 79 | 1023.2 |
| 20260903181747 | 27 | 182 | 0.0 | 1.6 | 0.05 | 0.05 | 0.05 | 80 | 1023.2 |
| 20260903181244 | 26 | 225 | 0.0 | 14.5 | 0.05 | 0.05 | 0.05 | 84 | 1023.2 |
| 20260903180718 | 26 | 186 | 0.0 | 1.6 | 0.05 | 0.05 | 0.05 | 85 | 1023.2 |
| 20260903180211 | 25 | 152 | 0.0 | 1.6 | 0.05 | 0.05 | 0.05 | 86 | 1023.3 |
| 20260903175644 | 25 | 123 | 0.0 | 0.0 | 0.05 | 0.05 | 0.05 | 85 | 1023.4 |
| 20260903175116 | 25 | 123 | 0.0 | 0.0 | 0.05 | 0.05 | 0.05 | 84 | 1023.6 |
| 20260903174615 | 25 | 123 | 0.0 | 0.0 | 0.03 | 0.03 | 0.03 | 84 | 1023.5 |
| 20260903174049 | 25 | 123 | 0.0 | 0.0 | 0.00 | 0.00 | 0.00 | 84 | 1023.3 |
| 20260903173530 | 25 | 123 | 0.0 | 0.0 | 0.00 | 0.00 | 0.00 | 82 | 1023.0 |
| 20260903173007 | 26 | 107 | 0.0 | 0.0 | 0.00 | 0.00 | 0.00 | 82 | 1023.3 |
| 20260903172710 | 26 | 105 | 0.0 | 0.0 | 0.00 | 0.00 | 0.00 | 83 | 1023.4 |
| 20260903171937 | 26 | 108 | 0.0 | 0.0 | 0.00 | 0.00 | 0.00 | 83 | 1023.5 |
| 20260903171704 | 25 | 144 | 0.0 | 0.0 | 0.00 | 0.00 | 0.00 | 85 | 1023.5 |
| 20260903170930 | 25 | 163 | 0.0 | 1.6 | 0.00 | 0.00 | 0.00 | 85 | 1023.7 |
| 20260903170410 | 25 | 227 | 0.0 | 0.0 | 0.00 | 0.00 | 0.00 | 83 | 1023.9 |
| 20260903165831 | 25 | 107 | 0.0 | 0.0 | 0.00 | 0.00 | 0.00 | 82 | 1024.0 |
| 20260903165313 | 25 | 113 | 0.0 | 0.0 | 0.00 | 0.00 | 0.00 | 80 | 1024.1 |
| 20260903164817 | 25 | 127 | 0.0 | 0.0 | 0.00 | 0.00 | 0.00 | 80 | 1024.2 |
| 20260903164310 | 26 | 128 | 0.0 | 0.0 | 0.00 | 0.00 | 0.00 | 79 | 1024.1 |
| 20260903163815 | 26 | 128 | 0.0 | 0.0 | 0.00 | 0.00 | 0.00 | 77 | 1023.9 |
| 20260903163301 | 26 | 202 | 0.0 | 0.0 | 0.00 | 0.00 | 0.00 | 76 | 1024.1 |
| 20260903162759 | 26 | 202 | 0.0 | 0.0 | 0.00 | 0.00 | 0.00 | 76 | 1024.1 |
| 20260903162253 | 26 | 159 | 0.0 | 0.0 | 0.00 | 0.00 | 0.00 | 75 | 1024.0 |
| 20260903162000 | 26 | 159 | 0.0 | 0.0 | 0.00 | 0.00 | 0.00 | 75 | 1023.9 |
| 20260903161222 | 26 | 175 | 0.0 | 6.4 | 0.00 | 0.00 | 0.00 | 74 | 1023.9 |
| 20260903160718 | 26 | 194 | 0.0 | 1.6 | 0.00 | 0.00 | 0.00 | 74 | 1024.1 |
| 20260903160152 | 25 | 172 | 0.0 | 11.3 | 0.00 | 0.00 | 0.00 | 76 | 1024.1 |
| 20260903155911 | 25 | 195 | 0.0 | 3.2 | 0.00 | 0.00 | 0.00 | 78 | 1024.0 |
| 20260903155115 | 25 | 198 | 0.0 | 3.2 | 0.00 | 0.00 | 0.00 | 79 | 1024.1 |
| 20260903155047 | 25 | 88 | 0.0 | 0.0 | 0.00 | 0.00 | 0.00 | 81 | 1024.0 |
| 20260903154043 | 25 | 88 | 0.0 | 0.0 | 0.00 | 0.00 | 0.00 | 82 | 1023.9 |
| 20260903153541 | 24 | 84 | 0.0 | 0.0 | 0.00 | 0.00 | 0.00 | 83 | 1024.0 |
| 20260903153036 | 24 | 101 | 0.0 | 0.0 | 0.00 | 0.00 | 0.00 | 82 | 1023.9 |
| 20260903152518 | 24 | 101 | 0.0 | 0.0 | 0.00 | 0.00 | 0.00 | 82 | 1023.8 |
| 20260903152248 | 24 | 111 | 0.0 | 0.0 | 0.00 | 0.00 | 0.00 | 81 | 1024.0 |
| 20260903151448 | 24 | 98 | 0.0 | 0.0 | 0.00 | 0.00 | 0.00 | 79 | 1024.1 |
| 20260903150944 | 25 | 140 | 0.0 | 0.0 | 0.00 | 0.00 | 0.00 | 78 | 1024.1 |
| 20260903150425 | 25 | 128 | 0.0 | 1.6 | 0.00 | 0.00 | 0.00 | 78 | 1024.1 |
| 20260903145859 | 25 | 128 | 0.0 | 1.6 | 0.00 | 0.00 | 0.00 | 76 | 1023.9 |
| 20260903145321 | 25 | 227 | 0.0 | 0.0 | 0.00 | 0.00 | 0.00 | 75 | 1023.9 |
| 20260903144752 | 25 | 115 | 0.0 | 0.0 | 0.00 | 0.00 | 0.00 | 75 | 1023.8 |
| 20260903144251 | 25 | 155 | 0.0 | 0.0 | 0.00 | 0.00 | 0.00 | 74 | 1023.9 |
| 20260903144001 | 25 | 119 | 0.0 | 0.0 | 0.00 | 0.00 | 0.00 | 76 | 1023.8 |
| 20260903143725 | 25 | 119 | 0.0 | 0.0 | 0.00 | 0.00 | 0.00 | 76 | 1023.8 |
| 20260903142722 | 25 | 355 | 0.0 | 1.6 | 0.00 | 0.00 | 0.00 | 77 | 1023.7 |
| 20260903142136 | 24 | 112 | 0.0 | 1.6 | 0.00 | 0.00 | 0.00 | 78 | 1023.8 |
| 20260903141636 | 24 | 113 | 0.0 | 1.6 | 0.00 | 0.00 | 0.00 | 79 | 1023.8 |
| 20260903141609 | 24 | 165 | 0.0 | 0.0 | 0.00 | 0.00 | 0.00 | 78 | 1023.9 |
| 20260903140603 | 24 | 165 | 0.0 | 1.6 | 0.00 | 0.00 | 0.00 | 78 | 1024.0 |
| 20260903140039 | 24 | 165 | 0.0 | 1.6 | 0.00 | 0.00 | 0.00 | 79 | 1024.0 |
| 20260903135542 | 23 | 88 | 0.0 | 1.6 | 0.00 | 0.00 | 0.00 | 79 | 1024.0 |
| 20260903135000 | 23 | 151 | 0.0 | 3.2 | 0.00 | 0.00 | 0.00 | 80 | 1023.9 |
| 20260903134459 | 23 | 119 | 0.0 | 3.2 | 0.00 | 0.00 | 0.00 | 81 | 1024.0 |
| 20260903133954 | 23 | 113 | 0.0 | 0.0 | 0.00 | 0.00 | 0.00 | 81 | 1024.0 |
| 20260903133722 | 23 | 156 | 0.0 | 0.0 | 0.00 | 0.00 | 0.00 | 81 | 1024.0 |
| 20260903132927 | 23 | 159 | 0.0 | 1.6 | 0.00 | 0.00 | 0.00 | 82 | 1024.0 |
| 20260903132406 | 23 | 169 | 0.0 | 1.6 | 0.00 | 0.00 | 0.00 | 81 | 1023.9 |
| 20260903131825 | 23 | 189 | 0.0 | 1.6 | 0.00 | 0.00 | 0.00 | 82 | 1023.9 |
| 20260903131321 | 23 | 196 | 0.0 | 0.0 | 0.00 | 0.00 | 0.00 | 82 | 1024.0 |
| 20260903130821 | 23 | 242 | 0.0 | 1.6 | 0.00 | 0.00 | 0.00 | 82 | 1023.9 |
| 20260903130255 | 23 | 184 | 0.0 | 1.6 | 0.00 | 0.00 | 0.00 | 82 | 1023.9 |
| 20260903125728 | 23 | 182 | 0.0 | 4.8 | 0.00 | 0.00 | 0.00 | 82 | 1023.8 |
| 20260903125232 | 23 | 211 | 0.0 | 4.8 | 0.00 | 0.00 | 0.00 | 82 | 1023.7 |
| 20260903124641 | 23 | 172 | 0.0 | 6.4 | 0.00 | 0.00 | 0.00 | 82 | 1023.7 |
| 20260903124112 | 23 | 190 | 0.0 | 6.4 | 0.00 | 0.00 | 0.00 | 82 | 1023.7 |
| 20260903123611 | 23 | 177 | 0.0 | 3.2 | 0.00 | 0.00 | 0.00 | 82 | 1023.7 |
| 20260903123042 | 23 | 179 | 0.0 | 1.6 | 0.00 | 0.00 | 0.00 | 83 | 1023.6 |
| 20260903122541 | 23 | 187 | 0.0 | 0.0 | 0.00 | 0.00 | 0.00 | 83 | 1023.1 |
| 20260903122021 | 23 | 187 | 0.0 | 0.0 | 0.00 | 0.00 | 0.00 | 83 | 1023.0 |
| 20260903121518 | 23 | 188 | 0.0 | 11.3 | 0.00 | 0.00 | 0.00 | 83 | 1023.0 |
| 20260903121014 | 23 | 185 | 0.0 | 11.3 | 0.00 | 0.00 | 0.00 | 83 | 1023.2 |
| 20260903120743 | 23 | 203 | 1.6 | 20.9 | 0.00 | 0.00 | 0.00 | 83 | 1023.1 |
| 20260903120446 | 23 | 178 | 1.6 | 20.9 | 0.00 | 0.00 | 0.00 | 83 | 1023.3 |
| 20260903115442 | 23 | 226 | 0.0 | 11.3 | 0.00 | 0.00 | 0.00 | 83 | 1023.4 |
| 20260903114918 | 23 | 209 | 0.0 | 9.7 | 0.00 | 0.00 | 0.00 | 84 | 1023.4 |
| 20260903114417 | 23 | 235 | 1.6 | 17.7 | 0.00 | 0.00 | 0.00 | 85 | 1023.7 |
| 20260903113851 | 23 | 200 | 1.6 | 17.7 | 0.00 | 0.00 | 0.00 | 85 | 1023.7 |
| 20260903113327 | 23 | 213 | 3.2 | 22.5 | 0.00 | 0.00 | 0.00 | 85 | 1024.1 |
| 20260903112759 | 23 | 236 | 1.6 | 22.5 | 0.00 | 0.00 | 0.00 | 85 | 1024.4 |
| 20260903112246 | 23 | 219 | 0.0 | 11.3 | 0.00 | 0.00 | 0.00 | 87 | 1024.3 |
| 20260903111749 | 23 | 189 | 0.0 | 11.3 | 0.00 | 0.00 | 0.00 | 88 | 1024.3 |
| 20260903111222 | 23 | 199 | 0.0 | 1.6 | 0.00 | 0.00 | 0.00 | 89 | 1024.2 |
| 20260903110951 | 23 | 209 | 0.0 | 0.0 | 0.00 | 0.00 | 0.00 | 89 | 1024.1 |
| 20260903110156 | 23 | 228 | 0.0 | 0.0 | 0.00 | 0.00 | 0.00 | 89 | 1024.0 |
| 20260903105652 | 23 | 234 | 0.0 | 1.6 | 0.00 | 0.00 | 0.00 | 89 | 1023.9 |
| 20260903105402 | 23 | 186 | 0.0 | 1.6 | 0.00 | 0.00 | 0.00 | 89 | 1023.9 |
| 20260903104614 | 23 | 189 | 0.0 | 4.8 | 0.00 | 0.00 | 0.00 | 89 | 1024.0 |
| 20260903104341 | 23 | 180 | 0.0 | 4.8 | 0.00 | 0.00 | 0.00 | 89 | 1024.1 |